Overview Statistics Trail Chart Weather Telemetry Raw packets
 

This is the latest recevied weather packets stored in our database for station/object DC9VQ-13. If no packets are shown the sender has not sent any weather packets the latest 10 day(s).

<< 5 6 7 8 9 10 11 >>
Time Temp. Humidity Pressure Rain* Wind** Luminosity Snow
1788541880 30° C 50% 1012.5 hPa 0 mm - - -
1788541277 30.56° C 48% 1012.5 hPa 0 mm - - -
1788540676 30.56° C 47% 1012.5 hPa 0 mm - - -
1788540073 30.56° C 47% 1012.4 hPa 0 mm - - -
1788539472 31.11° C 47% 1012.3 hPa 0 mm - - -
1788538870 31.11° C 47% 1012.4 hPa 0 mm - - -
1788538268 31.11° C 47% 1012.4 hPa 0 mm - - -
1788537666 30.56° C 48% 1012.4 hPa 0 mm - - -
1788537065 30.56° C 47% 1012.4 hPa 0 mm - - -
1788536462 30.56° C 47% 1012.4 hPa 0 mm - - -
1788535869 30.56° C 47% 1012.5 hPa 0 mm - - -
1788535258 31.11° C 46% 1012.5 hPa 0 mm - - -
1788534655 31.67° C 45% 1012.4 hPa 0 mm - - -
1788534054 31.67° C 45% 1012.3 hPa 0 mm - - -
1788533452 31.67° C 46% 1012.3 hPa 0 mm - - -
1788532849 31.67° C 48% 1012.2 hPa 0 mm - - -
1788532248 31.11° C 50% 1012.3 hPa 0 mm - - -
1788531646 30.56° C 51% 1012.2 hPa 0 mm - - -
1788531043 30° C 52% 1012.3 hPa 0 mm - - -
1788530441 30° C 53% 1012.4 hPa 0 mm - - -
1788529840 29.44° C 53% 1012.5 hPa 0 mm - - -
1788529258 29.44° C 54% 1012.6 hPa 0 mm - - -
1788528637 29.44° C 54% 1012.7 hPa 0 mm - - -
1788528033 28.89° C 55% 1012.8 hPa 0 mm - - -
1788527432 28.89° C 56% 1013 hPa 0 mm - - -

* Rain latest hour (hover to see other rain measurements)
** Current wind speed in m/s (hover to see current wind gust speed)